Prague, Czech Republic

9:19 PM CET on February 19, 2018 (GMT +0100)
Ruzyne

Weather History for LKPR - March, 2013

Change the Weather History Date:

Tuesday, March 19, 2013

  Actual Average Record
Temperature  
Mean Temperature 34 °F -  
Max Temperature 38 °F 52 °F 62 °F (2004)
Min Temperature 29 °F 34 °F 24 °F (1999)
Degree Days  
Heating Degree Days 32    
Moisture  
Dew Point 30 °F    
Average Humidity 89    
Maximum Humidity 100    
Minimum Humidity 69    
Precipitation  
Precipitation 0.00 in 0.05 in - ()
Sea Level Pressure  
Sea Level Pressure 29.38 in    
Wind  
Wind Speed 9 mph ()    
Max Wind Speed 20 mph    
Max Gust Speed -    
Visibility 4.7 miles    
Events Rain , Snow    
Averages and records for this station are not official NWS values.
T = Trace of Precipitation, MM = Missing Value Source: Averaged Metar Reports

Daily Weather History Graph

Daily Weather History Graph

Search for Another Location

Airport or City:

Trip Planner

Search our weather history database for the weather conditions in past years. The results will help you decide how hot, cold, wet, or windy it might be!

Date:

Astronomy

Mar. 19, 2013 Rise Set
Actual Time 6:07 AM CET 6:14 PM CET
Civil Twilight 5:35 AM CET 6:46 PM CET
Nautical Twilight 4:57 AM CET 7:24 PM CET
Astronomical Twilight 4:18 AM CET 8:04 PM CET
Moon 10:09 AM CET 1:21 AM CET
Length of Visible Light 13h 11m
Length of Day
12h 06m
Waxing Crescent, 48% of the Moon is Illuminated
Mar 19
Waxing Crescent
Mar 19
First Quarter
Mar 27
Full
Apr 3
Last Quarter
Apr 10
New

Hourly Weather History & Observations

Time (CET) Temp. Windchill Dew Point Humidity Pressure Visibility Wind Dir Wind Speed Gust Speed Precip Events Conditions
12:00 AM 30.2 °F 26.7 °F 30.2 °F 100% 29.21 in 1.9 mi East 3.5 mph - N/A Snow Light Snow
12:30 AM 30.2 °F - 30.2 °F 100% 29.21 in 1.4 mi Calm Calm - N/A Snow Snow
1:00 AM 30 °F - 30 °F 98% 29.27 in 1 mi West 4.5 mph - - Snow Snow
1:00 AM 30.2 °F 26.7 °F 30.2 °F 100% 29.21 in 1.1 mi West 3.5 mph - N/A Snow Snow
1:16 AM 30.2 °F 25.4 °F 30.2 °F 100% 29.21 in 1.0 mi West 4.6 mph - N/A Snow Snow
1:30 AM 30.2 °F 25.4 °F 30.2 °F 100% 29.21 in 1.2 mi West 4.6 mph - N/A Snow Snow
2:00 AM 30.2 °F 25.4 °F 30.2 °F 100% 29.21 in 1.4 mi West 4.6 mph - N/A Snow Light Snow
2:30 AM 30.2 °F 23.4 °F 30.2 °F 100% 29.21 in 1.4 mi West 6.9 mph - N/A Snow Light Snow
3:00 AM 30.2 °F 22.6 °F 30.2 °F 100% 29.21 in 1.6 mi West 8.1 mph - N/A Snow Light Snow
3:30 AM 30.2 °F 22.6 °F 30.2 °F 100% 29.21 in - West 8.1 mph - N/A Snow Light Snow
4:00 AM 30.2 °F 21.3 °F 30.2 °F 100% 29.21 in 2.5 mi West 10.4 mph - N/A Snow Light Snow
4:30 AM 30.2 °F 19.8 °F 30.2 °F 100% 29.24 in - West 13.8 mph - N/A Snow Light Snow
5:00 AM 30.2 °F 19.8 °F 30.2 °F 100% 29.24 in 3.1 mi West 13.8 mph - N/A Snow Light Snow
5:30 AM 30.2 °F 19.8 °F 30.2 °F 100% 29.24 in 3.7 mi West 13.8 mph - N/A Snow Light Snow
6:00 AM 30.2 °F 20.2 °F 30.2 °F 100% 29.27 in 5.0 mi West 12.7 mph - N/A Snow Light Snow
6:30 AM 30.2 °F 19.3 °F 30.2 °F 100% 29.27 in 2.2 mi West 15.0 mph - N/A Snow Light Snow
7:00 AM 30 °F - 29 °F 95% 29.36 in 2 mi West 11.2 mph - - Snow Light Snow
7:30 AM 30.2 °F 20.8 °F 30.2 °F 100% 29.30 in 1.1 mi West 11.5 mph - N/A Snow Snow
7:51 AM 30.2 °F 20.2 °F 30.2 °F 100% 29.30 in 1.1 mi West 12.7 mph - N/A Snow Light Snow
8:00 AM 30.2 °F 20.2 °F 28.4 °F 93% 29.33 in 1.2 mi West 12.7 mph - N/A Snow Light Snow
8:11 AM 30.2 °F 19.8 °F 28.4 °F 93% 29.33 in 1.9 mi West 13.8 mph - N/A Snow Light Snow
8:29 AM 30.2 °F 20.2 °F 28.4 °F 93% 29.33 in 3.7 mi West 12.7 mph - N/A Snow Light Snow
8:30 AM 30.2 °F 20.2 °F 28.4 °F 93% 29.33 in 3.7 mi West 12.7 mph - N/A Snow Light Snow
9:00 AM 32.0 °F 22.1 °F 28.4 °F 87% 29.36 in 6.2 mi West 13.8 mph - N/A Snow Light Snow
9:30 AM 32.0 °F 22.5 °F 28.4 °F 87% 29.36 in 6.2 mi West 12.7 mph - N/A Snow Light Snow
10:00 AM 32.0 °F 22.5 °F 28.4 °F 87% 29.36 in 6.2 mi West 12.7 mph - N/A   Mostly Cloudy
10:30 AM 33.8 °F 24.8 °F 28.4 °F 81% 29.36 in 6.2 mi West 12.7 mph - N/A   Mostly Cloudy
11:00 AM 33.8 °F 23.5 °F 30.2 °F 87% 29.39 in 6.2 mi West 16.1 mph - N/A   Overcast
11:30 AM 33.8 °F 23.9 °F 30.2 °F 87% 29.39 in 6.2 mi West 15.0 mph - N/A   Mostly Cloudy
12:00 PM 35.6 °F 27.5 °F 30.2 °F 81% 29.42 in 6.2 mi West 11.5 mph - N/A   Mostly Cloudy
12:30 PM 35.6 °F 27.1 °F 30.2 °F 81% 29.42 in 6.2 mi West 12.7 mph - N/A   Mostly Cloudy
12:38 PM 35.6 °F 27.1 °F 30.2 °F 81% 29.42 in 6.2 mi WSW 12.7 mph - N/A   Mostly Cloudy
1:00 PM 36 °F - 31 °F 76% 29.49 in 9 mi WSW 11.2 mph - -   Partly Cloudy
1:00 PM 35.6 °F 28.0 °F 32.0 °F 87% 29.42 in 6.2 mi WSW 10.4 mph - N/A   Overcast
1:30 PM 33.8 °F 28.6 °F 30.2 °F 87% 29.44 in 6.2 mi NNW 5.8 mph - N/A   Overcast
2:00 PM 35.6 °F 31.7 °F 30.2 °F 81% 29.44 in 6.2 mi North 4.6 mph - N/A   Overcast
2:30 PM 37.4 °F 32.8 °F 32.0 °F 81% 29.44 in 6.2 mi West 5.8 mph - N/A   Overcast
3:00 PM 37.4 °F 27.2 °F 30.2 °F 75% 29.44 in 6.2 mi WSW 19.6 mph - N/A   Overcast
3:30 PM 37.4 °F 27.8 °F 30.2 °F 75% 29.47 in 6.2 mi WSW 17.3 mph - N/A   Mostly Cloudy
4:00 PM 37.4 °F 28.9 °F 32.0 °F 81% 29.47 in 6.2 mi SW 13.8 mph - N/A   Partly Cloudy
4:30 PM 37.4 °F 28.2 °F 32.0 °F 81% 29.47 in 6.2 mi WSW 16.1 mph - N/A   Partly Cloudy
5:00 PM 39.2 °F 31.2 °F 32.0 °F 75% 29.47 in 6.2 mi WSW 13.8 mph - N/A   Mostly Cloudy
5:30 PM 37.4 °F 28.2 °F 32.0 °F 81% 29.47 in 6.2 mi SW 16.1 mph - N/A Rain Light Rain
5:38 PM 37.4 °F 28.2 °F 32.0 °F 81% 29.47 in 6.2 mi SW 16.1 mph - N/A   Mostly Cloudy
6:00 PM 37.4 °F 28.2 °F 32.0 °F 81% 29.47 in 6.2 mi WSW 16.1 mph - N/A   Scattered Clouds
6:30 PM 37.4 °F 28.2 °F 32.0 °F 81% 29.50 in 6.2 mi SW 16.1 mph - N/A   Partly Cloudy
7:00 PM 37 °F - 30 °F 69% 29.55 in 16 mi WSW 13.4 mph - -   Partly Cloudy
7:00 PM 37.4 °F 28.5 °F 30.2 °F 75% 29.50 in 6.2 mi WSW 15.0 mph - N/A   Partly Cloudy
7:23 PM 35.6 °F 27.5 °F 32.0 °F 87% 29.50 in 6.2 mi SW 11.5 mph - N/A Rain Light Rain Showers
7:30 PM 35.6 °F 27.5 °F 32.0 °F 87% 29.50 in 6.2 mi SW 11.5 mph - N/A Rain Light Rain Showers
7:39 PM 35.6 °F 26.2 °F 32.0 °F 87% 29.50 in 6.2 mi SW 15.0 mph - N/A   Scattered Clouds
8:00 PM 35.6 °F 27.1 °F 32.0 °F 87% 29.50 in - SW 12.7 mph - N/A   Clear
8:30 PM 35.6 °F 27.5 °F 32.0 °F 87% 29.50 in - WSW 11.5 mph - N/A   Clear
9:00 PM 33.8 °F 23.9 °F 32.0 °F 93% 29.53 in - SW 15.0 mph - N/A   Clear
9:30 PM 33.8 °F 23.2 °F 30.2 °F 87% 29.53 in - SW 17.3 mph - N/A   Clear
10:00 PM 33.8 °F 23.2 °F 32.0 °F 93% 29.53 in - SW 17.3 mph - N/A   Clear
10:30 PM 35.6 °F 25.2 °F 30.2 °F 81% 29.53 in - SW 18.4 mph - N/A   Clear
11:00 PM 33.8 °F 23.5 °F 30.2 °F 87% 29.53 in - SW 16.1 mph - N/A   Clear
11:30 PM 33.8 °F 24.8 °F 30.2 °F 87% 29.56 in - SW 12.7 mph - N/A   Clear